Regional Weather Roundup
Issued by NWS Little Rock, AR

Home | Current Version | Previous Version | Text Only | Print | Product List | Glossary On
Versions: 1 2 3 4 5 6 7 8 9 10 11 12 13 14 15 16 17 18 19 20 21 22 23 24 25 26 27 28 29 30 31 32 33 34 35 36 37 38 39 40 41 42 43 44 45 46 47 48 49 50
000
ASUS44 KLZK 250605
RWRLZK

WEATHER ROUNDUP FOR ARKANSAS
NATIONAL WEATHER SERVICE LITTLE ROCK AR
100 AM CDT SAT APR 25 2015

NOTE: "FAIR" INDICATES FEW OR NO CLOUDS BELOW 12,000 FEET WITH NO
SIGNIFICANT WEATHER AND/OR OBSTRUCTIONS TO VISIBILITY.

ARZ001-003-010-029-250700-
NORTHWEST ARKANSAS

CITY           SKY/WX    TMP DP  RH WIND       PRES   REMARKS
FAYETTEVILLE   FAIR      61  58  90 S10       29.62F
6HR MIN TEMP:  60; 6HR MAX TEMP:  62;

FORT SMITH     MOCLDY    60  58  92 E5        29.65S
6HR MIN TEMP:  60; 6HR MAX TEMP:  64;

HARRISON       LGT RAIN  61  58  90 S12       29.63F
6HR MIN TEMP:  59; 6HR MAX TEMP:  61; 6HR PCP:  0.01;

BENTONVILLE    FAIR     N/A N/A N/A S12G20    29.60F
ROGERS         FAIR      60  57  89 S10       29.61F
6HR MIN TEMP:  59; 6HR MAX TEMP:  62;

SILOAM SPGS    FAIR      61  54  77 S12G20    29.61F
6HR MIN TEMP:  61; 6HR MAX TEMP:  63;

HIGHFILL       FAIR      61  56  83 S15       29.60F
6HR MIN TEMP:  60; 6HR MAX TEMP:  63;

$$

ARZ004-005-016-250700-
NORTH CENTRAL ARKANSAS

CITY           SKY/WX    TMP DP  RH WIND       PRES   REMARKS
BATESVILLE     CLOUDY    59  57  94 S12       29.69F
6HR MIN TEMP:  55; 6HR MAX TEMP:  59; 6HR PCP:  0.12;

FLIPPIN        CLOUDY    61  57  88 CALM      29.64F
6HR MIN TEMP:  55; 6HR MAX TEMP:  61;

MTN HOME       CLOUDY    56  56 100 E5        29.64F FOG
6HR MIN TEMP:  54; 6HR MAX TEMP:  57; 6HR PCP: TRACE;

$$

ARZ040-041-250700-
WEST CENTRAL ARKANSAS

CITY           SKY/WX    TMP DP  RH WIND       PRES   REMARKS
MENA           MOCLDY    61  61 100 CALM      29.71R
MOUNT IDA      CLOUDY    63  63 100 VRB3      29.67R
6HR MIN TEMP:  61; 6HR MAX TEMP:  65; 6HR PCP:  0.53;

$$

ARZ009-017-025-026-028-250700-
NORTHEAST ARKANSAS

CITY           SKY/WX    TMP DP  RH WIND       PRES   REMARKS
CORNING          N/A     57  57 100 NE3       29.71F
JONESBORO      CLOUDY    57  56  96 S8        29.70F
6HR MIN TEMP:  54; 6HR MAX TEMP:  57; 6HR PCP:  0.05;

NEWPORT        CLOUDY    58  58 100 S9        29.72F
6HR MIN TEMP:  56; 6HR MAX TEMP:  58; 6HR PCP:  0.09;

WALNUT RIDGE   CLOUDY    57  54  88 S8        29.70S
6HR MIN TEMP:  54; 6HR MAX TEMP:  57; 6HR PCP:  0.03;

BLYTHEVILLE    FAIR      58  56  93 S15G23    29.73F
6HR MIN TEMP:  55; 6HR MAX TEMP:  58; 6HR PCP:  0.07;

$$

ARZ022-023-033-042-044-250700-
CENTRAL ARKANSAS

CITY           SKY/WX    TMP DP  RH WIND       PRES   REMARKS
LITTLE ROCK    CLOUDY    62  59  90 SE22G28   29.65F
6HR MIN TEMP:  59; 6HR MAX TEMP:  62; 6HR PCP:  0.71;

N LITTLE ROCK    N/A     60  60 100 SE16G29   29.65F
6HR MIN TEMP:  57; 6HR MAX TEMP:  60;

JACKSONVILLE   CLOUDY    61  60  99 SE18G28   29.62F
6HR MIN TEMP:  58; 6HR MAX TEMP:  61; 6HR PCP:  0.32;

SEARCY         LGT RAIN  59  58  96 SE10      29.68F
6HR MIN TEMP:  57; 6HR MAX TEMP:  59; 6HR PCP:  0.38;

HOT SPRINGS    CLOUDY    61  60  97 SE3       29.68R
6HR MIN TEMP:  61; 6HR MAX TEMP:  62; 6HR PCP:  0.63;

RUSSELLVILLE   CLOUDY    61  59  93 E5        29.67R
6HR MIN TEMP:  60; 6HR MAX TEMP:  61; 6HR PCP:  0.33;

CLINTON        CLOUDY    59  59 100 CALM      29.69F
$$

ARZ036-250700-
EAST ARKANSAS

CITY           SKY/WX    TMP DP  RH WIND       PRES   REMARKS
WEST MEMPHIS   LGT RAIN  59  58  96 SE30G39   29.65F
6HR MIN TEMP:  55; 6HR MAX TEMP:  59; 6HR PCP:  0.75;

$$

ARZ050-053-066-070-073-250700-
SOUTHWEST ARKANSAS

CITY           SKY/WX    TMP DP  RH WIND       PRES   REMARKS
ARKADELPHIA    CLOUDY    61  61 100 S7        29.70R
6HR MIN TEMP:  60; 6HR MAX TEMP:  61;

CAMDEN         LGT RAIN  63  59  88 NE12      29.70F
TEXARKANA      MOCLDY    61  61 100 S8        29.72R
6HR MIN TEMP:  61; 6HR MAX TEMP:  64; 6HR PCP:  2.45;

EL DORADO      RAIN      62  61  96 S10       29.77F
6HR MIN TEMP:  62; 6HR MAX TEMP:  64;

DE QUEEN       CLOUDY    63  61  93 SW5       29.70R
6HR MIN TEMP:  62; 6HR MAX TEMP:  63; 6HR PCP:  0.71;

$$

ARZ056-057-069-250700-
SOUTHEAST ARKANSAS

CITY           SKY/WX    TMP DP  RH WIND       PRES   REMARKS
PINE BLUFF     LGT RAIN  60  59  96 E17       29.68F
6HR MIN TEMP:  58; 6HR MAX TEMP:  60; 6HR PCP:  1.51;

STUTTGART      CLOUDY    61  57  88 SE17      29.76F
6HR MIN TEMP:  57; 6HR MAX TEMP:  61; 6HR PCP:  1.04;

MONTICELLO     LGT RAIN  62  62 100 E6        29.75F
6HR MIN TEMP:  60; 6HR MAX TEMP:  63; 6HR PCP:  2.15;


$$




USA.gov is the U.S. government's official web portal to all federal, state and local government web resources and services.